Time,TemperatureF,DewpointF,PressureIn,WindDirection,WindDirectionDegrees,WindSpeedMPH,WindSpeedGustMPH,Humidity,HourlyPrecipIn,Conditions,Clouds,dailyrainin,SoftwareType,DateUTC
2013-12-08 00:01:00,41.4,40.3,30.38,NNE,33,7.0,12.0,96,0.00,,,0.23,meteohub,2013-12-08 05:01:00,
2013-12-08 00:02:00,41.4,40.3,30.38,ENE,67,2.0,12.0,96,0.00,,,0.23,meteohub,2013-12-08 05:02:00,
2013-12-08 00:07:00,41.4,40.3,30.37,ESE,114,2.0,12.0,96,0.00,,,0.00,meteohub,2013-12-08 05:07:00,
2013-12-08 00:12:00,41.4,40.3,30.36,East,86,3.0,8.0,96,0.00,,,0.00,meteohub,2013-12-08 05:12:00,
2013-12-08 00:17:00,41.4,40.3,30.36,NE,52,2.0,8.0,96,0.00,,,0.00,meteohub,2013-12-08 05:17:00,
2013-12-08 00:22:00,41.4,40.3,30.36,ENE,64,0.0,8.0,96,0.00,,,0.00,meteohub,2013-12-08 05:22:00,
2013-12-08 00:27:00,41.5,40.5,30.35,ESE,106,4.0,8.0,96,0.00,,,0.00,meteohub,2013-12-08 05:27:00,
2013-12-08 00:32:00,41.4,40.3,30.35,ENE,73,0.0,7.0,96,0.00,,,0.00,meteohub,2013-12-08 05:32:00,
2013-12-08 00:37:00,41.4,40.3,30.35,ENE,62,2.0,8.0,96,0.00,,,0.00,meteohub,2013-12-08 05:37:00,
2013-12-08 00:42:00,41.5,40.5,30.36,ESE,105,0.0,8.0,96,0.00,,,0.00,meteohub,2013-12-08 05:42:00,
2013-12-08 00:47:00,41.5,40.5,30.36,East,79,0.0,8.0,96,0.00,,,0.00,meteohub,2013-12-08 05:47:00,
2013-12-08 00:52:00,41.5,40.5,30.36,East,79,0.0,8.0,96,0.00,,,0.00,meteohub,2013-12-08 05:52:00,
2013-12-08 00:57:00,41.5,40.5,30.36,ESE,119,0.0,6.0,96,0.00,,,0.00,meteohub,2013-12-08 05:57:00,
2013-12-08 01:02:00,41.5,40.5,30.36,ESE,119,0.0,5.0,96,0.00,,,0.00,meteohub,2013-12-08 06:02:00,
2013-12-08 01:07:00,41.7,40.6,30.36,NNE,26,0.0,5.0,96,0.00,,,0.00,meteohub,2013-12-08 06:07:00,
2013-12-08 01:12:00,41.7,40.6,30.35,NE,54,0.0,5.0,96,0.00,,,0.00,meteohub,2013-12-08 06:12:00,
2013-12-08 01:17:00,41.7,40.6,30.35,East,84,3.0,5.0,96,0.00,,,0.00,meteohub,2013-12-08 06:17:00,
2013-12-08 01:22:00,41.5,40.5,30.35,NNE,28,0.0,11.0,96,0.00,,,0.00,meteohub,2013-12-08 06:22:00,
2013-12-08 01:27:00,41.7,40.6,30.35,NNE,28,0.0,11.0,96,0.00,,,0.00,meteohub,2013-12-08 06:27:00,
2013-12-08 01:32:00,41.7,40.6,30.35,ENE,69,2.0,11.0,96,0.00,,,0.00,meteohub,2013-12-08 06:32:00,
2013-12-08 01:37:00,41.7,40.6,30.35,NNE,21,0.0,4.0,96,0.00,,,0.00,meteohub,2013-12-08 06:37:00,
2013-12-08 01:42:00,41.7,40.6,30.35,ESE,117,1.0,4.0,96,0.00,,,0.00,meteohub,2013-12-08 06:42:00,
2013-12-08 01:47:00,41.7,40.6,30.35,ENE,77,0.0,4.0,96,0.00,,,0.00,meteohub,2013-12-08 06:47:00,
2013-12-08 01:52:00,41.7,40.6,30.35,ENE,68,2.0,5.0,96,0.00,,,0.00,meteohub,2013-12-08 06:52:00,
2013-12-08 01:57:00,41.7,40.6,30.35,ENE,67,0.0,5.0,96,0.00,,,0.00,meteohub,2013-12-08 06:57:00,
2013-12-08 02:02:00,41.7,40.6,30.36,SE,124,2.0,8.0,96,0.00,,,0.00,meteohub,2013-12-08 07:02:00,
2013-12-08 02:07:00,41.7,40.6,30.36,NE,36,0.0,8.0,96,0.00,,,0.00,meteohub,2013-12-08 07:07:00,
2013-12-08 02:12:00,41.7,40.6,30.36,NE,36,0.0,8.0,96,0.00,,,0.00,meteohub,2013-12-08 07:12:00,
2013-12-08 02:17:00,41.7,40.6,30.35,NE,40,1.0,8.0,96,0.00,,,0.00,meteohub,2013-12-08 07:17:00,
2013-12-08 02:22:00,41.7,40.6,30.35,ENE,69,0.0,8.0,96,0.01,,,0.01,meteohub,2013-12-08 07:22:00,
2013-12-08 02:27:00,41.7,40.6,30.35,ESE,103,0.0,8.0,96,0.01,,,0.01,meteohub,2013-12-08 07:27:00,
2013-12-08 02:32:00,41.5,40.5,30.35,ESE,109,2.0,5.0,96,0.01,,,0.01,meteohub,2013-12-08 07:32:00,
2013-12-08 02:37:00,41.5,40.5,30.34,East,101,1.0,5.0,96,0.01,,,0.01,meteohub,2013-12-08 07:37:00,
2013-12-08 02:42:00,41.5,40.5,30.34,East,83,0.0,5.0,96,0.01,,,0.01,meteohub,2013-12-08 07:42:00,
2013-12-08 02:47:00,41.5,40.5,30.34,ESE,103,2.0,6.0,96,0.01,,,0.01,meteohub,2013-12-08 07:47:00,
2013-12-08 02:52:00,41.4,40.3,30.34,NE,55,2.0,6.0,96,0.01,,,0.01,meteohub,2013-12-08 07:52:00,
2013-12-08 02:58:00,41.4,40.3,30.34,ENE,73,0.0,6.0,96,0.01,,,0.01,meteohub,2013-12-08 07:58:00,
2013-12-08 03:03:00,41.5,40.5,30.34,East,80,3.0,13.0,96,0.01,,,0.01,meteohub,2013-12-08 08:03:00,
2013-12-08 03:08:00,41.5,40.5,30.33,East,82,0.0,13.0,96,0.01,,,0.01,meteohub,2013-12-08 08:08:00,
2013-12-08 03:13:00,41.4,40.3,30.34,ENE,78,0.0,13.0,96,0.01,,,0.01,meteohub,2013-12-08 08:13:00,
2013-12-08 03:18:00,41.4,40.3,30.34,East,86,0.0,7.0,96,0.02,,,0.01,meteohub,2013-12-08 08:18:00,
2013-12-08 03:23:00,41.4,40.3,30.34,East,81,0.0,6.0,96,0.01,,,0.02,meteohub,2013-12-08 08:23:00,
2013-12-08 03:28:00,41.4,40.6,30.35,NE,42,0.0,6.0,97,0.01,,,0.02,meteohub,2013-12-08 08:28:00,
2013-12-08 03:33:00,41.4,40.3,30.34,ENE,70,2.0,6.0,96,0.01,,,0.02,meteohub,2013-12-08 08:33:00,
2013-12-08 03:38:00,41.4,40.6,30.34,NNE,19,0.0,6.0,97,0.01,,,0.02,meteohub,2013-12-08 08:38:00,
2013-12-08 03:43:00,41.4,40.6,30.34,NE,48,3.0,6.0,97,0.01,,,0.02,meteohub,2013-12-08 08:43:00,
2013-12-08 03:48:00,41.4,40.6,30.34,ENE,71,2.0,6.0,97,0.01,,,0.02,meteohub,2013-12-08 08:48:00,
2013-12-08 03:53:00,41.4,40.6,30.34,ENE,76,0.0,6.0,97,0.01,,,0.02,meteohub,2013-12-08 08:53:00,
2013-12-08 03:58:00,41.2,40.5,30.33,SE,124,4.0,6.0,97,0.01,,,0.02,meteohub,2013-12-08 08:58:00,
2013-12-08 04:03:00,41.2,40.5,30.33,SE,127,4.0,8.0,97,0.01,,,0.02,meteohub,2013-12-08 09:03:00,
2013-12-08 04:08:00,41.2,40.5,30.33,SE,145,0.0,8.0,97,0.01,,,0.02,meteohub,2013-12-08 09:08:00,
2013-12-08 04:13:00,41.2,40.5,30.33,East,90,5.0,8.0,97,0.01,,,0.02,meteohub,2013-12-08 09:13:00,
2013-12-08 04:18:00,41.2,40.5,30.33,East,83,4.0,7.0,97,0.00,,,0.02,meteohub,2013-12-08 09:18:00,
2013-12-08 04:23:00,41.2,40.5,30.33,ENE,61,1.0,7.0,97,0.00,,,0.02,meteohub,2013-12-08 09:23:00,
2013-12-08 04:28:00,41.2,40.5,30.33,East,84,0.0,7.0,97,0.00,,,0.02,meteohub,2013-12-08 09:28:00,
2013-12-08 04:33:00,41.2,40.5,30.33,NNE,22,4.0,7.0,97,0.00,,,0.02,meteohub,2013-12-08 09:33:00,
2013-12-08 04:38:00,41.2,40.5,30.33,East,83,0.0,6.0,97,0.00,,,0.02,meteohub,2013-12-08 09:38:00,
2013-12-08 04:43:00,41.2,40.5,30.33,SE,140,0.0,5.0,97,0.00,,,0.02,meteohub,2013-12-08 09:43:00,
2013-12-08 04:48:00,41.2,40.5,30.33,SW,225,0.0,6.0,97,0.00,,,0.02,meteohub,2013-12-08 09:48:00,
2013-12-08 04:53:00,41.2,40.5,30.33,NE,48,0.0,6.0,97,0.00,,,0.02,meteohub,2013-12-08 09:53:00,
2013-12-08 04:58:00,41.2,40.5,30.33,ESE,108,1.0,6.0,97,0.00,,,0.02,meteohub,2013-12-08 09:58:00,
2013-12-08 05:03:00,41.2,40.5,30.33,ENE,71,1.0,8.0,97,0.00,,,0.02,meteohub,2013-12-08 10:03:00,
2013-12-08 05:08:00,41.0,40.3,30.33,SE,126,4.0,8.0,97,0.00,,,0.02,meteohub,2013-12-08 10:08:00,
2013-12-08 05:13:00,41.0,40.3,30.34,East,92,0.0,11.0,97,0.00,,,0.02,meteohub,2013-12-08 10:13:00,
2013-12-08 05:18:00,41.0,40.3,30.34,ENE,78,4.0,11.0,97,0.00,,,0.02,meteohub,2013-12-08 10:18:00,
2013-12-08 05:23:00,41.0,40.3,30.33,East,88,3.0,8.0,97,0.00,,,0.02,meteohub,2013-12-08 10:23:00,
2013-12-08 05:28:00,40.8,40.1,30.33,East,82,2.0,6.0,97,0.00,,,0.02,meteohub,2013-12-08 10:28:00,
2013-12-08 05:33:00,40.8,40.1,30.34,East,91,2.0,8.0,97,0.00,,,0.02,meteohub,2013-12-08 10:33:00,
2013-12-08 05:38:00,40.8,40.1,30.33,SE,126,1.0,8.0,97,0.00,,,0.02,meteohub,2013-12-08 10:38:00,
2013-12-08 05:43:00,40.8,40.1,30.33,East,82,3.0,8.0,97,0.00,,,0.02,meteohub,2013-12-08 10:43:00,
2013-12-08 05:48:00,40.8,40.1,30.34,East,90,6.0,8.0,97,0.00,,,0.02,meteohub,2013-12-08 10:48:00,
2013-12-08 05:53:00,40.8,40.1,30.34,ENE,71,0.0,8.0,97,0.00,,,0.02,meteohub,2013-12-08 10:53:00,
2013-12-08 05:58:00,40.8,40.1,30.33,East,86,3.0,9.0,97,0.00,,,0.02,meteohub,2013-12-08 10:58:00,
2013-12-08 06:03:00,40.8,40.1,30.33,NE,37,4.0,9.0,97,0.00,,,0.02,meteohub,2013-12-08 11:03:00,
2013-12-08 06:08:00,40.8,40.1,30.32,ENE,69,0.0,9.0,97,0.00,,,0.02,meteohub,2013-12-08 11:08:00,
2013-12-08 06:13:00,40.8,40.1,30.33,SE,136,0.0,11.0,97,0.00,,,0.02,meteohub,2013-12-08 11:13:00,
2013-12-08 06:18:00,40.8,40.1,30.34,East,90,0.0,11.0,97,0.00,,,0.02,meteohub,2013-12-08 11:18:00,
2013-12-08 06:23:00,40.6,39.9,30.34,ESE,110,0.0,11.0,97,0.00,,,0.02,meteohub,2013-12-08 11:23:00,
2013-12-08 06:28:00,40.8,40.1,30.35,ESE,110,0.0,11.0,97,0.00,,,0.02,meteohub,2013-12-08 11:28:00,
2013-12-08 06:33:00,40.8,40.1,30.36,SSW,201,0.0,11.0,97,0.00,,,0.02,meteohub,2013-12-08 11:33:00,
2013-12-08 06:38:00,40.8,40.1,30.36,SSE,161,0.0,6.0,97,0.00,,,0.02,meteohub,2013-12-08 11:38:00,
2013-12-08 06:43:00,40.8,40.1,30.36,SSE,161,0.0,6.0,97,0.00,,,0.02,meteohub,2013-12-08 11:43:00,
2013-12-08 06:48:00,40.8,40.1,30.35,ESE,113,5.0,0.0,97,0.00,,,0.02,meteohub,2013-12-08 11:48:00,
2013-12-08 06:53:00,40.5,39.7,30.35,ENE,72,0.0,0.0,97,0.00,,,0.02,meteohub,2013-12-08 11:53:00,
2013-12-08 06:58:00,40.5,39.7,30.35,SE,130,4.0,7.0,97,0.00,,,0.02,meteohub,2013-12-08 11:58:00,
2013-12-08 07:03:00,40.5,39.7,30.35,ENE,74,0.0,7.0,97,0.00,,,0.02,meteohub,2013-12-08 12:03:00,
2013-12-08 07:08:00,40.5,39.7,30.35,ENE,77,0.0,7.0,97,0.00,,,0.02,meteohub,2013-12-08 12:08:00,
2013-12-08 07:13:00,40.5,39.7,30.36,NE,45,0.0,5.0,97,0.00,,,0.02,meteohub,2013-12-08 12:13:00,
2013-12-08 07:18:00,40.5,39.7,30.36,NE,45,0.0,5.0,97,0.00,,,0.02,meteohub,2013-12-08 12:18:00,
2013-12-08 07:23:00,40.5,39.7,30.36,NE,45,0.0,5.0,97,0.00,,,0.02,meteohub,2013-12-08 12:23:00,
2013-12-08 07:28:00,40.5,39.7,30.37,NE,45,0.0,0.0,97,0.00,,,0.02,meteohub,2013-12-08 12:28:00,
2013-12-08 07:33:00,40.5,39.7,30.37,NE,45,0.0,0.0,97,0.00,,,0.02,meteohub,2013-12-08 12:33:00,
2013-12-08 07:38:00,40.5,39.7,30.37,NE,45,0.0,0.0,97,0.00,,,0.02,meteohub,2013-12-08 12:38:00,
2013-12-08 07:43:00,40.5,39.7,30.36,NE,45,0.0,0.0,97,0.00,,,0.02,meteohub,2013-12-08 12:43:00,
2013-12-08 07:48:00,40.5,39.7,30.36,NE,45,0.0,0.0,97,0.00,,,0.02,meteohub,2013-12-08 12:48:00,
2013-12-08 07:53:00,40.5,39.7,30.36,NE,45,0.0,2.0,97,0.00,,,0.02,meteohub,2013-12-08 12:53:00,
2013-12-08 07:58:00,40.3,39.6,30.36,SE,139,0.0,5.0,97,0.00,,,0.02,meteohub,2013-12-08 12:58:00,
2013-12-08 08:03:00,40.3,39.6,30.36,NE,45,3.0,5.0,97,0.00,,,0.02,meteohub,2013-12-08 13:03:00,
2013-12-08 08:08:00,40.1,39.4,30.36,NNE,15,0.0,5.0,97,0.00,,,0.02,meteohub,2013-12-08 13:08:00,
2013-12-08 08:13:00,40.1,39.4,30.36,East,83,0.0,4.0,97,0.00,,,0.02,meteohub,2013-12-08 13:13:00,
2013-12-08 08:18:00,40.1,39.4,30.36,NE,45,1.0,5.0,97,0.00,,,0.02,meteohub,2013-12-08 13:18:00,
2013-12-08 08:23:00,39.9,39.2,30.36,SE,126,0.0,5.0,97,0.00,,,0.02,meteohub,2013-12-08 13:23:00,
2013-12-08 08:28:00,40.1,39.4,30.36,SE,126,0.0,5.0,97,0.00,,,0.02,meteohub,2013-12-08 13:28:00,
2013-12-08 08:33:00,40.3,39.6,30.36,SE,126,0.0,5.0,97,0.00,,,0.02,meteohub,2013-12-08 13:33:00,
2013-12-08 08:38:00,40.3,39.6,30.36,SE,126,0.0,0.0,97,0.00,,,0.02,meteohub,2013-12-08 13:38:00,
2013-12-08 08:43:00,40.3,39.6,30.36,ENE,71,0.0,0.0,97,0.00,,,0.02,meteohub,2013-12-08 13:43:00,
2013-12-08 08:48:00,40.5,39.7,30.36,ESE,123,0.0,6.0,97,0.00,,,0.02,meteohub,2013-12-08 13:48:00,
2013-12-08 08:53:00,40.5,39.7,30.36,SE,136,0.0,6.0,97,0.00,,,0.02,meteohub,2013-12-08 13:53:00,
2013-12-08 08:58:00,40.5,39.7,30.36,NE,36,0.0,6.0,97,0.00,,,0.02,meteohub,2013-12-08 13:58:00,
2013-12-08 09:03:00,40.5,39.7,30.36,ESE,109,0.0,6.0,97,0.00,,,0.02,meteohub,2013-12-08 14:03:00,
2013-12-08 09:08:00,40.5,39.7,30.36,ESE,109,0.0,6.0,97,0.00,,,0.02,meteohub,2013-12-08 14:08:00,
2013-12-08 09:13:00,40.6,39.9,30.36,ENE,61,0.0,8.0,97,0.00,,,0.02,meteohub,2013-12-08 14:13:00,
2013-12-08 09:18:00,40.5,39.7,30.36,East,87,0.0,8.0,97,0.00,,,0.02,meteohub,2013-12-08 14:18:00,
2013-12-08 09:23:00,40.6,39.9,30.36,East,87,0.0,8.0,97,0.00,,,0.02,meteohub,2013-12-08 14:23:00,
2013-12-08 09:28:00,40.6,39.9,30.36,North,0,0.0,3.0,97,0.00,,,0.02,meteohub,2013-12-08 14:28:00,
2013-12-08 09:33:00,40.6,39.9,30.36,North,355,0.0,4.0,97,0.00,,,0.02,meteohub,2013-12-08 14:33:00,
2013-12-08 09:38:00,40.6,39.9,30.36,East,89,0.0,4.0,97,0.00,,,0.02,meteohub,2013-12-08 14:38:00,
2013-12-08 09:43:00,40.6,39.9,30.36,ENE,77,0.0,5.0,97,0.01,,,0.03,meteohub,2013-12-08 14:43:00,
2013-12-08 09:48:00,40.6,39.9,30.36,SE,146,0.0,5.0,97,0.01,,,0.03,meteohub,2013-12-08 14:48:00,
2013-12-08 09:53:00,40.6,39.9,30.36,SE,146,0.0,5.0,97,0.01,,,0.03,meteohub,2013-12-08 14:53:00,
2013-12-08 09:58:00,40.6,39.9,30.36,ENE,60,2.0,4.0,97,0.01,,,0.03,meteohub,2013-12-08 14:58:00,
2013-12-08 10:03:00,40.6,39.9,30.36,ENE,78,0.0,5.0,97,0.01,,,0.03,meteohub,2013-12-08 15:03:00,
2013-12-08 10:08:00,40.6,39.9,30.36,NE,43,3.0,5.0,97,0.01,,,0.03,meteohub,2013-12-08 15:08:00,
2013-12-08 10:13:00,40.6,39.9,30.36,NE,43,1.0,5.0,97,0.01,,,0.03,meteohub,2013-12-08 15:13:00,
2013-12-08 10:18:00,40.8,40.1,30.36,NE,43,0.0,5.0,97,0.01,,,0.03,meteohub,2013-12-08 15:18:00,
2013-12-08 10:23:00,41.2,40.5,30.35,East,94,2.0,4.0,97,0.01,,,0.03,meteohub,2013-12-08 15:23:00,
2013-12-08 10:28:00,41.0,40.3,30.35,East,96,0.0,9.0,97,0.01,,,0.03,meteohub,2013-12-08 15:28:00,
2013-12-08 10:33:00,41.2,40.5,30.35,NE,36,0.0,9.0,97,0.01,,,0.03,meteohub,2013-12-08 15:33:00,
2013-12-08 10:38:00,41.2,40.5,30.35,ENE,69,1.0,9.0,97,0.01,,,0.03,meteohub,2013-12-08 15:38:00,
2013-12-08 10:43:00,41.4,40.6,30.35,North,10,0.0,6.0,97,0.00,,,0.03,meteohub,2013-12-08 15:43:00,
2013-12-08 10:49:00,41.7,41.0,30.36,North,10,0.0,6.0,97,0.00,,,0.03,meteohub,2013-12-08 15:49:00,
2013-12-08 10:54:00,41.7,41.0,30.36,NNW,333,0.0,5.0,97,0.00,,,0.03,meteohub,2013-12-08 15:54:00,
2013-12-08 10:59:00,41.7,41.0,30.35,NNW,333,0.0,3.0,97,0.00,,,0.03,meteohub,2013-12-08 15:59:00,
2013-12-08 11:04:00,41.5,40.8,30.35,NE,42,1.0,15.0,97,0.00,,,0.03,meteohub,2013-12-08 16:04:00,
2013-12-08 11:09:00,41.7,41.0,30.35,East,80,0.0,15.0,97,0.00,,,0.03,meteohub,2013-12-08 16:09:00,
2013-12-08 11:14:00,41.7,41.0,30.35,NNW,348,0.0,15.0,97,0.00,,,0.03,meteohub,2013-12-08 16:14:00,
2013-12-08 11:19:00,41.9,41.2,30.35,NNW,338,0.0,15.0,97,0.00,,,0.03,meteohub,2013-12-08 16:19:00,
2013-12-08 11:24:00,41.9,41.2,30.35,NNW,333,2.0,4.0,97,0.00,,,0.03,meteohub,2013-12-08 16:24:00,
2013-12-08 11:29:00,42.1,41.0,30.34,SE,130,0.0,3.0,96,0.00,,,0.03,meteohub,2013-12-08 16:29:00,
2013-12-08 11:34:00,42.1,41.0,30.34,NNW,344,0.0,4.0,96,0.00,,,0.03,meteohub,2013-12-08 16:34:00,
2013-12-08 11:39:00,42.1,41.0,30.34,NNW,347,0.0,4.0,96,0.00,,,0.03,meteohub,2013-12-08 16:39:00,
2013-12-08 11:44:00,42.1,41.0,30.33,NE,47,0.0,4.0,96,0.00,,,0.03,meteohub,2013-12-08 16:44:00,
2013-12-08 11:49:00,41.7,40.6,30.33,ENE,69,0.0,2.0,96,0.00,,,0.03,meteohub,2013-12-08 16:49:00,
2013-12-08 11:54:00,41.9,40.8,30.33,ENE,69,0.0,5.0,96,0.00,,,0.03,meteohub,2013-12-08 16:54:00,
2013-12-08 11:59:00,42.1,41.0,30.33,NNE,30,0.0,5.0,96,0.00,,,0.03,meteohub,2013-12-08 16:59:00,
2013-12-08 12:04:00,42.1,41.0,30.32,NNW,338,1.0,5.0,96,0.00,,,0.03,meteohub,2013-12-08 17:04:00,
2013-12-08 12:09:00,42.1,41.0,30.32,NNW,327,0.0,4.0,96,0.00,,,0.03,meteohub,2013-12-08 17:09:00,
2013-12-08 12:14:00,42.3,41.2,30.32,NNW,327,0.0,4.0,96,0.00,,,0.03,meteohub,2013-12-08 17:14:00,
2013-12-08 12:19:00,42.4,41.4,30.32,NNW,327,0.0,4.0,96,0.00,,,0.03,meteohub,2013-12-08 17:19:00,
2013-12-08 12:24:00,42.4,41.4,30.31,East,90,0.0,5.0,96,0.00,,,0.03,meteohub,2013-12-08 17:24:00,
2013-12-08 12:29:00,42.4,41.4,30.31,East,90,0.0,5.0,96,0.00,,,0.03,meteohub,2013-12-08 17:29:00,
2013-12-08 12:34:00,42.4,41.4,30.31,East,90,0.0,5.0,96,0.00,,,0.03,meteohub,2013-12-08 17:34:00,
2013-12-08 12:39:00,42.4,41.4,30.30,North,350,0.0,4.0,96,0.00,,,0.03,meteohub,2013-12-08 17:39:00,
2013-12-08 12:44:00,42.6,41.5,30.30,North,350,0.0,3.0,96,0.00,,,0.03,meteohub,2013-12-08 17:44:00,
2013-12-08 12:49:00,42.6,41.5,30.30,NNW,345,0.0,3.0,96,0.00,,,0.03,meteohub,2013-12-08 17:49:00,
2013-12-08 12:54:00,42.6,41.5,30.29,ESE,117,1.0,4.0,96,0.00,,,0.03,meteohub,2013-12-08 17:54:00,
2013-12-08 12:59:00,42.6,41.4,30.28,NE,55,2.0,6.0,95,0.00,,,0.03,meteohub,2013-12-08 17:59:00,
2013-12-08 13:04:00,42.4,41.2,30.27,East,93,2.0,6.0,95,0.00,,,0.03,meteohub,2013-12-08 18:04:00,
2013-12-08 13:10:00,42.4,41.2,30.27,ENE,73,2.0,9.0,95,0.00,,,0.03,meteohub,2013-12-08 18:10:00,
2013-12-08 13:15:00,42.4,41.2,30.27,East,87,3.0,9.0,95,0.00,,,0.03,meteohub,2013-12-08 18:15:00,
2013-12-08 13:20:00,42.6,41.5,30.26,ENE,69,4.0,11.0,96,0.00,,,0.03,meteohub,2013-12-08 18:20:00,
2013-12-08 13:25:00,42.6,41.4,30.26,East,88,1.0,11.0,95,0.00,,,0.03,meteohub,2013-12-08 18:25:00,
2013-12-08 13:30:00,43.2,42.1,30.26,ESE,109,0.0,11.0,96,0.00,,,0.03,meteohub,2013-12-08 18:30:00,
2013-12-08 13:35:00,43.3,42.3,30.26,NNE,26,0.0,8.0,96,0.00,,,0.03,meteohub,2013-12-08 18:35:00,
2013-12-08 13:40:00,43.7,42.6,30.26,NNE,26,0.0,6.0,96,0.00,,,0.03,meteohub,2013-12-08 18:40:00,
2013-12-08 13:45:00,43.7,42.6,30.26,East,88,3.0,0.0,96,0.00,,,0.03,meteohub,2013-12-08 18:45:00,
2013-12-08 13:50:00,43.5,42.3,30.26,ESE,116,0.0,5.0,95,0.00,,,0.03,meteohub,2013-12-08 18:50:00,
2013-12-08 13:55:00,43.5,42.3,30.26,ESE,116,0.0,5.0,95,0.00,,,0.03,meteohub,2013-12-08 18:55:00,
2013-12-08 14:00:00,43.5,42.3,30.26,ESE,116,0.0,5.0,95,0.00,,,0.03,meteohub,2013-12-08 19:00:00,
2013-12-08 14:05:00,43.5,42.3,30.26,ENE,62,0.0,5.0,95,0.00,,,0.03,meteohub,2013-12-08 19:05:00,
2013-12-08 14:10:00,43.5,42.3,30.26,NE,40,0.0,0.0,95,0.00,,,0.03,meteohub,2013-12-08 19:10:00,
2013-12-08 14:15:00,43.7,42.4,30.26,NE,40,0.0,3.0,95,0.00,,,0.03,meteohub,2013-12-08 19:15:00,
2013-12-08 14:20:00,43.9,42.6,30.27,NE,40,0.0,3.0,95,0.00,,,0.03,meteohub,2013-12-08 19:20:00,
2013-12-08 14:25:00,43.7,42.4,30.27,North,350,2.0,3.0,95,0.00,,,0.03,meteohub,2013-12-08 19:25:00,
2013-12-08 14:30:00,43.5,42.3,30.27,North,350,0.0,4.0,95,0.00,,,0.03,meteohub,2013-12-08 19:30:00,
2013-12-08 14:35:00,43.5,42.3,30.27,North,355,0.0,4.0,95,0.00,,,0.03,meteohub,2013-12-08 19:35:00,
2013-12-08 14:40:00,43.3,42.1,30.27,North,355,0.0,4.0,95,0.00,,,0.03,meteohub,2013-12-08 19:40:00,
2013-12-08 14:45:00,43.3,42.1,30.27,NW,315,0.0,4.0,95,0.00,,,0.03,meteohub,2013-12-08 19:45:00,
2013-12-08 14:50:00,43.2,41.9,30.27,NNW,348,0.0,5.0,95,0.00,,,0.03,meteohub,2013-12-08 19:50:00,
2013-12-08 14:55:00,43.0,41.7,30.27,NNW,348,0.0,5.0,95,0.00,,,0.03,meteohub,2013-12-08 19:55:00,
2013-12-08 15:00:00,43.0,41.7,30.27,NNW,348,0.0,5.0,95,0.00,,,0.03,meteohub,2013-12-08 20:00:00,
2013-12-08 15:05:00,43.2,41.9,30.27,WNW,298,0.0,5.0,95,0.00,,,0.03,meteohub,2013-12-08 20:05:00,
2013-12-08 15:10:00,43.0,41.7,30.27,WNW,298,0.0,3.0,95,0.00,,,0.03,meteohub,2013-12-08 20:10:00,
2013-12-08 15:15:00,43.0,41.7,30.27,ENE,66,0.0,3.0,95,0.00,,,0.03,meteohub,2013-12-08 20:15:00,
2013-12-08 15:20:00,43.0,41.7,30.27,North,0,1.0,3.0,95,0.00,,,0.03,meteohub,2013-12-08 20:20:00,
2013-12-08 15:25:00,42.8,41.5,30.27,ENE,64,0.0,3.0,95,0.00,,,0.03,meteohub,2013-12-08 20:25:00,
2013-12-08 15:30:00,42.8,41.5,30.27,ENE,64,0.0,3.0,95,0.00,,,0.03,meteohub,2013-12-08 20:30:00,
2013-12-08 15:35:00,42.8,41.5,30.27,ENE,64,0.0,2.0,95,0.00,,,0.03,meteohub,2013-12-08 20:35:00,
2013-12-08 15:40:00,42.6,41.4,30.27,North,355,0.0,2.0,95,0.00,,,0.03,meteohub,2013-12-08 20:40:00,
2013-12-08 15:45:00,42.6,41.4,30.27,NNW,337,0.0,2.0,95,0.00,,,0.03,meteohub,2013-12-08 20:45:00,
2013-12-08 15:50:00,42.6,41.4,30.27,NNW,346,0.0,2.0,95,0.00,,,0.03,meteohub,2013-12-08 20:50:00,
2013-12-08 15:55:00,42.6,41.5,30.27,NW,313,1.0,3.0,96,0.00,,,0.03,meteohub,2013-12-08 20:55:00,
2013-12-08 16:00:00,42.6,41.4,30.27,North,355,0.0,3.0,95,0.00,,,0.03,meteohub,2013-12-08 21:00:00,
2013-12-08 16:05:00,42.6,41.5,30.28,NNW,348,0.0,3.0,96,0.00,,,0.03,meteohub,2013-12-08 21:05:00,
2013-12-08 16:10:00,42.6,41.5,30.28,NNW,348,0.0,3.0,96,0.00,,,0.03,meteohub,2013-12-08 21:10:00,
2013-12-08 16:15:00,42.6,41.5,30.28,NW,309,0.0,3.0,96,0.00,,,0.03,meteohub,2013-12-08 21:15:00,
2013-12-08 16:20:00,42.6,41.5,30.28,NW,313,0.0,3.0,96,0.00,,,0.03,meteohub,2013-12-08 21:20:00,
2013-12-08 16:25:00,42.6,41.5,30.28,North,355,0.0,3.0,96,0.00,,,0.03,meteohub,2013-12-08 21:25:00,
2013-12-08 16:30:00,42.6,41.5,30.28,North,355,0.0,3.0,96,0.00,,,0.03,meteohub,2013-12-08 21:30:00,
2013-12-08 16:35:00,42.4,41.4,30.28,North,355,0.0,2.0,96,0.00,,,0.03,meteohub,2013-12-08 21:35:00,
2013-12-08 16:40:00,42.4,41.4,30.28,North,355,0.0,2.0,96,0.00,,,0.03,meteohub,2013-12-08 21:40:00,
2013-12-08 16:45:00,42.4,41.4,30.28,North,355,1.0,2.0,96,0.00,,,0.03,meteohub,2013-12-08 21:45:00,
2013-12-08 16:50:00,42.4,41.4,30.28,North,355,0.0,2.0,96,0.00,,,0.03,meteohub,2013-12-08 21:50:00,
2013-12-08 16:56:00,42.4,41.4,30.28,North,355,0.0,2.0,96,0.00,,,0.03,meteohub,2013-12-08 21:56:00,
2013-12-08 17:01:00,42.3,41.2,30.28,North,355,0.0,2.0,96,0.00,,,0.03,meteohub,2013-12-08 22:01:00,
2013-12-08 17:06:00,42.3,41.2,30.28,North,355,0.0,1.0,96,0.00,,,0.03,meteohub,2013-12-08 22:06:00,
2013-12-08 17:11:00,42.4,41.4,30.28,North,355,0.0,1.0,96,0.00,,,0.03,meteohub,2013-12-08 22:11:00,
2013-12-08 17:16:00,42.3,41.2,30.28,North,355,0.0,3.0,96,0.00,,,0.03,meteohub,2013-12-08 22:16:00,
2013-12-08 17:21:00,42.3,41.2,30.28,North,355,0.0,3.0,96,0.00,,,0.03,meteohub,2013-12-08 22:21:00,
2013-12-08 17:26:00,42.3,41.2,30.28,North,355,0.0,3.0,96,0.00,,,0.03,meteohub,2013-12-08 22:26:00,
2013-12-08 17:31:00,42.3,41.2,30.28,North,355,2.0,2.0,96,0.00,,,0.03,meteohub,2013-12-08 22:31:00,
2013-12-08 17:36:00,42.1,41.0,30.29,North,355,0.0,2.0,96,0.00,,,0.03,meteohub,2013-12-08 22:36:00,
2013-12-08 17:41:00,42.3,41.2,30.29,North,355,0.0,2.0,96,0.00,,,0.03,meteohub,2013-12-08 22:41:00,
2013-12-08 17:46:00,42.3,41.2,30.28,North,355,0.0,2.0,96,0.00,,,0.03,meteohub,2013-12-08 22:46:00,
2013-12-08 17:51:00,42.3,41.5,30.28,North,355,0.0,0.0,97,0.00,,,0.03,meteohub,2013-12-08 22:51:00,
2013-12-08 17:56:00,42.1,41.4,30.28,North,355,0.0,0.0,97,0.00,,,0.03,meteohub,2013-12-08 22:56:00,
2013-12-08 18:01:00,42.1,41.4,30.28,North,355,0.0,0.0,97,0.00,,,0.03,meteohub,2013-12-08 23:01:00,
2013-12-08 18:06:00,42.1,41.4,30.28,North,355,0.0,0.0,97,0.00,,,0.03,meteohub,2013-12-08 23:06:00,
2013-12-08 18:11:00,42.1,41.4,30.27,North,355,0.0,0.0,97,0.00,,,0.03,meteohub,2013-12-08 23:11:00,
2013-12-08 18:16:00,42.1,41.4,30.27,North,355,0.0,0.0,97,0.00,,,0.03,meteohub,2013-12-08 23:16:00,
2013-12-08 18:21:00,42.1,41.4,30.28,North,355,0.0,0.0,97,0.00,,,0.03,meteohub,2013-12-08 23:21:00,
2013-12-08 18:26:00,41.9,41.2,30.27,North,355,0.0,1.0,97,0.00,,,0.03,meteohub,2013-12-08 23:26:00,
2013-12-08 18:31:00,41.9,41.2,30.28,NW,305,0.0,2.0,97,0.00,,,0.03,meteohub,2013-12-08 23:31:00,
2013-12-08 18:36:00,41.9,41.2,30.28,WNW,292,0.0,2.0,97,0.00,,,0.03,meteohub,2013-12-08 23:36:00,
2013-12-08 18:41:00,41.9,41.2,30.28,WNW,292,0.0,2.0,97,0.00,,,0.03,meteohub,2013-12-08 23:41:00,
2013-12-08 18:46:00,41.9,41.2,30.28,WNW,292,0.0,0.0,97,0.00,,,0.03,meteohub,2013-12-08 23:46:00,
2013-12-08 18:51:00,41.7,41.0,30.28,WNW,292,0.0,0.0,97,0.00,,,0.03,meteohub,2013-12-08 23:51:00,
2013-12-08 18:56:00,41.9,41.2,30.29,WNW,292,0.0,0.0,97,0.00,,,0.03,meteohub,2013-12-08 23:56:00,
2013-12-08 19:01:00,41.7,41.0,30.28,WNW,292,0.0,0.0,97,0.00,,,0.03,meteohub,2013-12-09 00:01:00,
2013-12-08 19:06:00,41.9,41.2,30.29,WNW,292,0.0,0.0,97,0.00,,,0.03,meteohub,2013-12-09 00:06:00,
2013-12-08 19:11:00,41.9,41.2,30.29,WNW,292,0.0,0.0,97,0.00,,,0.03,meteohub,2013-12-09 00:11:00,
2013-12-08 19:16:00,41.9,41.2,30.29,WNW,292,0.0,0.0,97,0.00,,,0.03,meteohub,2013-12-09 00:16:00,
2013-12-08 19:21:00,41.9,41.2,30.29,WNW,302,0.0,0.0,97,0.00,,,0.03,meteohub,2013-12-09 00:21:00,
2013-12-08 19:26:00,41.9,41.2,30.29,NW,306,0.0,0.0,97,0.00,,,0.03,meteohub,2013-12-09 00:26:00,
2013-12-08 19:31:00,41.7,41.0,30.29,NW,306,0.0,0.0,97,0.00,,,0.03,meteohub,2013-12-09 00:31:00,
2013-12-08 19:36:00,41.7,41.0,30.29,NW,306,0.0,0.0,97,0.00,,,0.03,meteohub,2013-12-09 00:36:00,
2013-12-08 19:41:00,41.7,41.0,30.29,NW,306,0.0,0.0,97,0.00,,,0.03,meteohub,2013-12-09 00:41:00,
2013-12-08 19:46:00,41.7,41.0,30.29,NW,306,0.0,0.0,97,0.00,,,0.03,meteohub,2013-12-09 00:46:00,
2013-12-08 19:51:00,41.9,41.2,30.29,NW,306,0.0,0.0,97,0.00,,,0.03,meteohub,2013-12-09 00:51:00,
2013-12-08 19:56:00,41.7,41.0,30.29,NW,306,0.0,0.0,97,0.00,,,0.03,meteohub,2013-12-09 00:56:00,
2013-12-08 20:01:00,41.7,41.0,30.29,NW,306,0.0,0.0,97,0.00,,,0.03,meteohub,2013-12-09 01:01:00,
2013-12-08 20:06:00,41.9,41.2,30.29,NW,306,0.0,0.0,97,0.00,,,0.03,meteohub,2013-12-09 01:06:00,
2013-12-08 20:11:00,41.7,41.0,30.29,NW,306,0.0,0.0,97,0.00,,,0.03,meteohub,2013-12-09 01:11:00,
2013-12-08 20:16:00,41.7,41.0,30.29,NW,306,0.0,0.0,97,0.00,,,0.03,meteohub,2013-12-09 01:16:00,
2013-12-08 20:21:00,41.7,41.0,30.28,NW,306,0.0,0.0,97,0.00,,,0.03,meteohub,2013-12-09 01:21:00,
2013-12-08 20:26:00,41.7,41.0,30.28,NW,306,0.0,0.0,97,0.00,,,0.03,meteohub,2013-12-09 01:26:00,
2013-12-08 20:31:00,41.7,41.0,30.28,NW,306,0.0,0.0,97,0.00,,,0.03,meteohub,2013-12-09 01:31:00,
2013-12-08 20:36:00,41.7,41.0,30.29,NW,306,0.0,0.0,97,0.00,,,0.03,meteohub,2013-12-09 01:36:00,
2013-12-08 20:41:00,41.7,41.0,30.29,NW,306,0.0,0.0,97,0.00,,,0.03,meteohub,2013-12-09 01:41:00,
2013-12-08 20:46:00,41.7,41.0,30.28,NW,306,0.0,0.0,97,0.00,,,0.03,meteohub,2013-12-09 01:46:00,
2013-12-08 20:51:00,41.5,40.8,30.28,NW,306,0.0,0.0,97,0.00,,,0.03,meteohub,2013-12-09 01:51:00,
2013-12-08 20:56:00,41.5,40.8,30.28,NW,306,0.0,0.0,97,0.00,,,0.03,meteohub,2013-12-09 01:56:00,
2013-12-08 21:01:00,41.5,40.8,30.28,NW,306,0.0,0.0,97,0.00,,,0.03,meteohub,2013-12-09 02:01:00,
2013-12-08 21:06:00,41.5,40.8,30.27,NW,306,0.0,0.0,97,0.00,,,0.03,meteohub,2013-12-09 02:06:00,
2013-12-08 21:11:00,41.7,41.0,30.27,NW,306,0.0,0.0,97,0.00,,,0.03,meteohub,2013-12-09 02:11:00,
2013-12-08 21:16:00,41.5,40.8,30.28,NW,306,0.0,1.0,97,0.00,,,0.03,meteohub,2013-12-09 02:16:00,
2013-12-08 21:21:00,41.7,41.0,30.28,NW,306,0.0,1.0,97,0.00,,,0.03,meteohub,2013-12-09 02:21:00,
2013-12-08 21:26:00,41.5,40.8,30.28,NW,306,0.0,1.0,97,0.00,,,0.03,meteohub,2013-12-09 02:26:00,
2013-12-08 21:31:00,41.5,40.8,30.28,NW,306,0.0,0.0,97,0.00,,,0.03,meteohub,2013-12-09 02:31:00,
2013-12-08 21:36:00,41.5,40.8,30.28,NW,306,0.0,0.0,97,0.00,,,0.03,meteohub,2013-12-09 02:36:00,
2013-12-08 21:41:00,41.5,40.8,30.28,NW,306,0.0,0.0,97,0.00,,,0.03,meteohub,2013-12-09 02:41:00,
2013-12-08 21:46:00,41.5,40.8,30.28,NW,306,0.0,0.0,97,0.00,,,0.03,meteohub,2013-12-09 02:46:00,
2013-12-08 21:51:00,41.5,40.8,30.28,NW,306,0.0,0.0,97,0.00,,,0.03,meteohub,2013-12-09 02:51:00,
2013-12-08 21:56:00,41.7,41.0,30.28,NW,306,0.0,0.0,97,0.00,,,0.03,meteohub,2013-12-09 02:56:00,
2013-12-08 22:01:00,41.7,41.0,30.28,NW,306,0.0,0.0,97,0.00,,,0.03,meteohub,2013-12-09 03:01:00,
2013-12-08 22:06:00,41.5,40.8,30.28,NW,306,0.0,0.0,97,0.00,,,0.03,meteohub,2013-12-09 03:06:00,
2013-12-08 22:11:00,41.5,40.8,30.28,NW,306,0.0,0.0,97,0.00,,,0.03,meteohub,2013-12-09 03:11:00,
2013-12-08 22:16:00,41.5,40.8,30.27,NW,306,0.0,0.0,97,0.00,,,0.03,meteohub,2013-12-09 03:16:00,
2013-12-08 22:21:00,41.5,40.8,30.27,NW,306,0.0,0.0,97,0.00,,,0.03,meteohub,2013-12-09 03:21:00,
2013-12-08 22:26:00,41.5,40.8,30.27,NW,306,0.0,0.0,97,0.00,,,0.03,meteohub,2013-12-09 03:26:00,
2013-12-08 22:31:00,41.5,40.8,30.27,NW,306,0.0,0.0,97,0.00,,,0.03,meteohub,2013-12-09 03:31:00,
2013-12-08 22:36:00,41.5,40.8,30.27,NW,306,0.0,0.0,97,0.00,,,0.03,meteohub,2013-12-09 03:36:00,
2013-12-08 22:41:00,41.5,40.8,30.27,NW,306,0.0,0.0,97,0.00,,,0.03,meteohub,2013-12-09 03:41:00,
2013-12-08 22:46:00,41.7,41.2,30.27,NW,306,0.0,0.0,98,0.00,,,0.03,meteohub,2013-12-09 03:46:00,
2013-12-08 22:51:00,41.7,41.2,30.27,NW,306,0.0,0.0,98,0.00,,,0.03,meteohub,2013-12-09 03:51:00,
2013-12-08 22:56:00,41.7,41.0,30.27,NW,306,0.0,0.0,97,0.00,,,0.03,meteohub,2013-12-09 03:56:00,
2013-12-08 23:01:00,41.7,41.0,30.27,NW,306,0.0,0.0,97,0.00,,,0.03,meteohub,2013-12-09 04:01:00,
2013-12-08 23:06:00,41.9,41.4,30.27,NW,306,0.0,0.0,98,0.00,,,0.03,meteohub,2013-12-09 04:06:00,
2013-12-08 23:11:00,42.1,41.4,30.27,NW,306,0.0,2.0,97,0.00,,,0.03,meteohub,2013-12-09 04:11:00,
2013-12-08 23:16:00,42.1,41.4,30.27,NW,306,0.0,2.0,97,0.00,,,0.03,meteohub,2013-12-09 04:16:00,
2013-12-08 23:21:00,42.1,41.4,30.26,NW,306,0.0,2.0,97,0.00,,,0.03,meteohub,2013-12-09 04:21:00,
2013-12-08 23:26:00,41.9,41.2,30.26,NW,306,0.0,0.0,97,0.00,,,0.03,meteohub,2013-12-09 04:26:00,
2013-12-08 23:31:00,41.7,41.0,30.26,NW,306,0.0,0.0,97,0.00,,,0.03,meteohub,2013-12-09 04:31:00,
2013-12-08 23:36:00,41.9,41.2,30.25,NW,306,0.0,0.0,97,0.00,,,0.03,meteohub,2013-12-09 04:36:00,
2013-12-08 23:41:00,41.9,41.4,30.25,NW,306,0.0,0.0,98,0.00,,,0.03,meteohub,2013-12-09 04:41:00,
2013-12-08 23:46:00,41.9,41.4,30.25,NW,306,0.0,0.0,98,0.00,,,0.03,meteohub,2013-12-09 04:46:00,
2013-12-08 23:51:00,41.9,41.4,30.25,NW,306,0.0,0.0,98,0.00,,,0.03,meteohub,2013-12-09 04:51:00,
2013-12-08 23:56:00,42.1,41.5,30.25,NW,306,0.0,0.0,98,0.00,,,0.03,meteohub,2013-12-09 04:56:00,